Location: Gouy
(50.0008°N, 3.2556°E)
Time: 10:54:06
(UTC+00:00)

Cosmos 2082 Rocket - Pass Details

Date: 23 May 2024
Orbit: 832 x 853 km, 71.0° (Epoch: 14 June)

Event Time Altitude Azimuth Distance (km) Brightness Sun altitude
Exits shadow 01:48:51 15° 244° (WSW) 2,169 3.8 -14.1°
Maximum altitude 01:53:18 41° 309° (NW) 1,223 3.1 -13.8°
Drops below altitude 10° 01:58:42 10° 20° (NNE) 2,493 6.0 -13.3°
Sets 02:01:19 0° 27° (NNE) 3,430 7.4 -13.1°
